Regional Weather Roundup
Issued by NWS

Home | Current Version | Previous Version | Text Only | Print | Product List | Glossary On
Versions: 1 2 3 4 5 6 7 8 9 10 11 12 13 14 15 16 17 18 19 20 21 22 23 24 25 26 27 28 29 30 31 32 33 34 35 36 37 38 39 40 41 42 43 44 45 46 47 48 49 50
158
ASUS42 KKEY 061310
RWRKEY

FLORIDA REGIONAL WEATHER ROUNDUP FOR THE FLORIDA KEYS
NATIONAL WEATHER SERVICE KEY WEST FLORIDA
900 AM EDT FRI MAY 06 2016

...SOUTH FLORIDA AND THE KEYS...

CITY           SKY/WX    TMP DP  RH WIND       PRES   REMARKS
FORT MYERS     SUNNY     70  46  42 NE8       29.90R
SW REGIONAL AP MOSUNNY   69  48  47 NE8       29.91R
NAPLES         SUNNY     71  45  39 NE14      29.90R
MIAMI          PTSUNNY   72  51  47 N7        29.89R
WEST KENDALL   PTSUNNY   73  53  49 N8        29.89R
HOMESTEAD      MOSUNNY   73  53  50 N8        29.89R
MARATHON       PTSUNNY   74  60  61 N9        29.89R
BOCA CHICA NAS PTSUNNY   73  68  84 E8        29.90R
KEY WEST INTL  MOSUNNY   73  67  81 NE8       29.89R

...INTERNATIONAL WEATHER...

CITY           SKY/WX    TMP DP  RH WIND       PRES   REMARKS
NASSAU BAHAMAS MOSUNNY   81  72  74 SW5       29.87
CANCUN MEXICO  MOSUNNY   66  63  88 W6        29.98R
COZUMEL MEXICO MOSUNNY   72  64  78 NW9       29.98R

ADJACENT COASTAL WATERS...

STATION/POSITION TIME  SKY/WX   TEMP    WIND        PRES    WAVE
                                AIR SEA DIR/SP/G            HT/PER
                 (UTC)          (F)     (DEG/KT/KT) (MB)    (FT/S)
PULASKI SHOAL LI 1300            74      20/ 14/ 16 1012.8R
SAND KEY         1250            74      40/ 13/ 19 1012.6R
SOMBRERO KEY     NOT AVBL
LONG KEY         1200            72 78   20/ 11/ 14 1012.0R
MOLASSES REEF    1300            73 78  360/ 13/ 14 1012.4R
FOWEY ROCKS      NOT AVBL

$$




USA.gov is the U.S. government's official web portal to all federal, state and local government web resources and services.